カタログに戻る

QIANFAN-108

運用中通信PO
NORAD 66050·PAYLOAD·🇨🇳 China

打ち上げ Oct 17, 2025 から Taiyuan Satellite Launch Center

Loading…

次のパス (今後24時間)

TLE

最新Source: Space-Track

元期: Sep 14, 2026, 08:58 UTC

1 66050U 25233T   26257.37422412  .00000072  00000-0  92471-4 0  9995
2 66050  89.0048  34.1570 0001619 105.1756 254.9574 13.51028558 45238

AllMySatでQIANFAN-108をリアルタイム追跡

Download on the App Store